Weather History for KAIT - July, 2013

Change the Weather History Date:

Thursday, July 18, 2013

  Actual Average Record
Temperature  
Mean Temperature 81 °F -  
Max Temperature 91 °F 82 °F - (-1)
Min Temperature 71 °F 58 °F - (-1)
Cooling Degree Days 16    
Growing Degree Days 31 (Base 50)    
Moisture  
Dew Point 70 °F    
Average Humidity 65    
Maximum Humidity 83    
Minimum Humidity 49    
Precipitation  
Precipitation 0.00 in - - ()
Sea Level Pressure  
Sea Level Pressure 29.87 in    
Wind  
Wind Speed 6 mph (SSW)    
Max Wind Speed 20 mph    
Max Gust Speed 25 mph    
Visibility 10 miles    
Events      
Averages and records for this station are not official NWS values.
T = Trace of Precipitation, MM = Missing Value Source: NWS Daily Summary

Daily Weather History Graph

Daily Weather History Graph

Search for Another Location

Airport or City:

Trip Planner

Search our weather history database for the weather conditions in past years. The results will help you decide how hot, cold, wet, or windy it might be!

Date:

Astronomy

Jul. 18, 2013 Rise Set
Actual Time 5:39 AM CDT 9:01 PM CDT
Civil Twilight 5:02 AM CDT 9:38 PM CDT
Nautical Twilight 4:14 AM CDT 10:26 PM CDT
Astronomical Twilight 3:11 AM CDT 11:28 PM CDT
Moon 4:57 PM CDT (7/18) 1:34 AM CDT (7/18)
Length of Visible Light 16h 35m
Length of Day
15h 21m
Waxing Gibbous, 77% of the Moon is Illuminated
Jul 18
Waxing Gibbous
Jul 22
Full
Jul 29
Last Quarter
Aug 6
New
Aug 14
First Quarter

Hourly Weather History & Observations

Time (CDT) Temp. Heat Index Dew Point Humidity Pressure Visibility Wind Dir Wind Speed Gust Speed Precip Events Conditions
12:13 AM 75.2 °F - 69.8 °F 83% 30.09 in 10.0 mi Calm Calm - N/A   Mostly Cloudy
12:32 AM 75.2 °F - 69.8 °F 83% 30.09 in 10.0 mi Calm Calm - N/A   Scattered Clouds
12:53 AM 75.2 °F - 69.8 °F 83% 30.08 in 10.0 mi Calm Calm - N/A   Scattered Clouds
1:13 AM 75.2 °F - 69.8 °F 83% 30.07 in 10.0 mi South 3.5 mph - N/A   Scattered Clouds
1:32 AM 75.2 °F - 68.0 °F 78% 30.07 in 10.0 mi South 3.5 mph - N/A   Clear
1:53 AM 73.4 °F - 68.0 °F 83% 30.06 in 10.0 mi Calm Calm - N/A   Scattered Clouds
2:13 AM 75.2 °F - 68.0 °F 78% 30.06 in 10.0 mi Calm Calm - N/A   Clear
2:32 AM 75.2 °F - 68.0 °F 78% 30.05 in 10.0 mi Calm Calm - N/A   Clear
2:53 AM 73.4 °F - 66.2 °F 78% 30.05 in 10.0 mi Calm Calm - N/A   Scattered Clouds
3:13 AM 71.6 °F - 66.2 °F 83% 30.05 in 10.0 mi Calm Calm - N/A   Scattered Clouds
3:33 AM 73.4 °F - 68.0 °F 83% 30.04 in 10.0 mi Calm Calm - N/A   Clear
3:53 AM 75.2 °F - 69.8 °F 83% 30.03 in 10.0 mi South 4.6 mph - N/A   Clear
4:13 AM 77.0 °F - 69.8 °F 78% 30.03 in 10.0 mi SSW 4.6 mph - N/A   Mostly Cloudy
4:33 AM 77.0 °F - 69.8 °F 78% 30.02 in 10.0 mi SSW 3.5 mph - N/A   Scattered Clouds
4:53 AM 75.2 °F - 69.8 °F 83% 30.01 in 10.0 mi South 3.5 mph - N/A   Scattered Clouds
5:13 AM 75.2 °F - 69.8 °F 83% 30.01 in 10.0 mi South 4.6 mph - N/A   Clear
5:33 AM 75.2 °F - 69.8 °F 83% 30.00 in 10.0 mi South 5.8 mph - N/A   Clear
5:53 AM 77.0 °F - 69.8 °F 78% 30.00 in 10.0 mi South 5.8 mph - N/A   Scattered Clouds
6:12 AM 77.0 °F - 69.8 °F 78% 29.99 in 10.0 mi South 5.8 mph - N/A   Clear
6:33 AM 77.0 °F - 69.8 °F 78% 29.99 in 10.0 mi South 6.9 mph - N/A   Clear
6:52 AM 78.8 °F - 69.8 °F 74% 29.98 in 10.0 mi SSW 8.1 mph - N/A   Scattered Clouds
7:13 AM 78.8 °F - 69.8 °F 74% 29.97 in 10.0 mi SSW 8.1 mph - N/A   Clear
7:33 AM 80.6 °F 83.9 °F 69.8 °F 70% 29.96 in 10.0 mi SSW 11.5 mph 17.3 mph N/A   Scattered Clouds
7:52 AM 80.6 °F 83.9 °F 69.8 °F 70% 29.95 in 10.0 mi SSW 10.4 mph 16.1 mph N/A   Scattered Clouds
8:13 AM 82.4 °F 86.3 °F 69.8 °F 66% 29.94 in 10.0 mi SSW 10.4 mph 16.1 mph N/A   Clear
8:33 AM 82.4 °F 87.2 °F 71.6 °F 70% 29.94 in 10.0 mi SSW 8.1 mph - N/A   Clear
8:52 AM 82.4 °F 87.2 °F 71.6 °F 70% 29.93 in 10.0 mi SSW 8.1 mph 17.3 mph N/A   Clear
9:13 AM 84.2 °F 88.4 °F 69.8 °F 62% 29.92 in 10.0 mi SSW 12.7 mph 19.6 mph N/A   Clear
9:33 AM 84.2 °F 89.6 °F 71.6 °F 66% 29.92 in 10.0 mi SSW 9.2 mph 18.4 mph N/A   Clear
9:52 AM 84.2 °F 89.6 °F 71.6 °F 66% 29.91 in 10.0 mi SW 10.4 mph 18.4 mph N/A   Clear
10:13 AM 86.0 °F 91.8 °F 71.6 °F 62% 29.90 in 10.0 mi SSW 11.5 mph 18.4 mph N/A   Scattered Clouds
10:33 AM 87.8 °F 93.8 °F 71.6 °F 58% 29.90 in 10.0 mi SSW 9.2 mph 16.1 mph N/A   Scattered Clouds
10:52 AM 87.8 °F 93.8 °F 71.6 °F 58% 29.89 in 10.0 mi SSW 9.2 mph 17.3 mph N/A   Clear
11:13 AM 87.8 °F 95.6 °F 73.4 °F 62% 29.89 in 10.0 mi SSW 8.1 mph - N/A   Clear
11:33 AM 87.8 °F 93.8 °F 71.6 °F 58% 29.88 in 10.0 mi SSW 9.2 mph 17.3 mph N/A   Clear
11:52 AM 89.6 °F 98.2 °F 73.4 °F 59% 29.88 in 10.0 mi SW 9.2 mph - N/A   Clear
12:13 PM 89.6 °F 96.2 °F 71.6 °F 55% 29.87 in 10.0 mi SSW 12.7 mph 20.7 mph N/A   Clear
12:32 PM 89.6 °F 96.2 °F 71.6 °F 55% 29.86 in 10.0 mi SSW 11.5 mph 20.7 mph N/A   Clear
12:53 PM 91.4 °F 98.4 °F 71.6 °F 52% 29.85 in 10.0 mi SSW 10.4 mph 21.9 mph N/A   Clear
1:13 PM 91.4 °F 98.4 °F 71.6 °F 52% 29.84 in 10.0 mi SW 15.0 mph 23.0 mph N/A   Clear
1:33 PM 91.4 °F 96.8 °F 69.8 °F 49% 29.83 in 10.0 mi SSW 15.0 mph 24.2 mph N/A   Clear
1:53 PM 91.4 °F 98.4 °F 71.6 °F 52% 29.82 in 10.0 mi SSW 16.1 mph 20.7 mph N/A   Clear
2:13 PM 91.4 °F 96.8 °F 69.8 °F 49% 29.82 in 10.0 mi SSW 15.0 mph 23.0 mph N/A   Clear
2:33 PM 91.4 °F 96.8 °F 69.8 °F 49% 29.81 in 10.0 mi SW 15.0 mph 25.3 mph N/A   Clear
2:52 PM 91.4 °F 96.8 °F 69.8 °F 49% 29.80 in 10.0 mi SSW 19.6 mph 25.3 mph N/A   Clear
3:13 PM 91.4 °F 96.8 °F 69.8 °F 49% 29.79 in 10.0 mi SSW 11.5 mph 17.3 mph N/A   Clear
3:32 PM 89.6 °F 94.7 °F 69.8 °F 52% 29.79 in 10.0 mi SSW 11.5 mph 18.4 mph N/A   Clear
3:53 PM 89.6 °F 94.7 °F 69.8 °F 52% 29.78 in 10.0 mi SSW 12.7 mph 19.6 mph N/A   Clear
4:13 PM 91.4 °F 96.8 °F 69.8 °F 49% 29.78 in 10.0 mi SSW 11.5 mph 16.1 mph N/A   Clear
4:32 PM 91.4 °F 98.4 °F 71.6 °F 52% 29.77 in 10.0 mi SSW 13.8 mph 25.3 mph N/A   Clear
4:53 PM 89.6 °F 94.7 °F 69.8 °F 52% 29.77 in 10.0 mi SSW 9.2 mph 19.6 mph N/A   Clear
5:13 PM 87.8 °F 93.8 °F 71.6 °F 58% 29.76 in 10.0 mi SSW 8.1 mph - N/A   Clear
5:32 PM 89.6 °F 94.7 °F 69.8 °F 52% 29.76 in 10.0 mi SSW 12.7 mph 17.3 mph N/A   Clear
5:53 PM 89.6 °F 96.2 °F 71.6 °F 55% 29.75 in 10.0 mi SW 8.1 mph 16.1 mph N/A   Clear
6:13 PM 87.8 °F 92.6 °F 69.8 °F 55% 29.74 in 10.0 mi SSW 11.5 mph 18.4 mph N/A   Clear
6:32 PM 89.6 °F 94.7 °F 69.8 °F 52% 29.73 in 10.0 mi SSW 10.4 mph - N/A   Clear
6:53 PM 89.6 °F 96.2 °F 71.6 °F 55% 29.73 in 10.0 mi SW 13.8 mph 18.4 mph N/A   Clear
7:00 PM 89.6 °F 96.2 °F 71.6 °F 55% 29.73 in 10.0 mi SW 9.2 mph 19.6 mph N/A   Clear
7:33 PM 87.8 °F 93.8 °F 71.6 °F 58% 29.72 in 10.0 mi SSW 12.7 mph 20.7 mph N/A   Clear
7:52 PM 87.8 °F 93.8 °F 71.6 °F 58% 29.72 in 10.0 mi SW 11.5 mph 20.7 mph N/A   Clear
8:13 PM 87.8 °F 93.8 °F 71.6 °F 58% 29.71 in 10.0 mi SW 10.4 mph 17.3 mph N/A   Clear
8:33 PM 86.0 °F 91.8 °F 71.6 °F 62% 29.70 in 10.0 mi SW 10.4 mph 18.4 mph N/A   Clear
8:52 PM 86.0 °F 91.8 °F 71.6 °F 62% 29.70 in 10.0 mi SW 11.5 mph 17.3 mph N/A   Clear
9:13 PM 84.2 °F 89.6 °F 71.6 °F 66% 29.70 in 10.0 mi SW 9.2 mph 17.3 mph N/A   Clear
9:33 PM 84.2 °F 89.6 °F 71.6 °F 66% 29.69 in 10.0 mi SW 9.2 mph 20.7 mph N/A   Clear
9:52 PM 84.2 °F 89.6 °F 71.6 °F 66% 29.69 in 10.0 mi SSW 10.4 mph 19.6 mph N/A   Clear
10:13 PM 84.2 °F 89.6 °F 71.6 °F 66% 29.69 in 10.0 mi SSW 9.2 mph 18.4 mph N/A   Clear
10:33 PM 84.2 °F 89.6 °F 71.6 °F 66% 29.69 in 10.0 mi SW 10.4 mph 16.1 mph N/A   Clear
10:52 PM 84.2 °F 89.6 °F 71.6 °F 66% 29.68 in 10.0 mi SSW 12.7 mph 17.3 mph N/A   Clear
11:13 PM 84.2 °F 89.6 °F 71.6 °F 66% 29.68 in 10.0 mi SSW 12.7 mph 18.4 mph N/A   Clear
11:33 PM 84.2 °F 89.6 °F 71.6 °F 66% 29.68 in 10.0 mi SW 9.2 mph 16.1 mph N/A   Clear
11:52 PM 84.2 °F 89.6 °F 71.6 °F 66% 29.69 in 10.0 mi SW 9.2 mph 17.3 mph N/A   Clear